Find Starlink 11330

NORAD ID: 62011 Int'l Des: 2024-213 Owner: SPXS Country: US Constellation: starlink operational
LEOCIRCULAR

Live Position

Loading 3D Globe...

About Starlink 11330

Description loading...

Upcoming Passes

Passes for default location (London). Set your location on the main map for personalized predictions.

Altitude History

Loading altitude history...

Two-Line Element Set

1 62011U 24213D 26105.56400139 .00189208 00000-0 15280-2 0 9990
2 62011 53.1577 219.7082 0000585 82.7462 277.3623 15.69760817 80701
Epoch: Apr 15, 2026 • Age: 29 hours

Current Status

Altitude 374.4 km
Velocity 7.68 km/s
Sub-Earth Point -46.41°S, 43.04°E
Launch Date Nov 18, 2024
Age 1.4 years
Type internet

Technical Details

Classification Payload
Mass 960.00 kg
Dry Mass 910.00 kg
Total Mass 960.00 kg
Length 0.30 m
Diameter 4.10 m
Span 29.00 m
Shape Box + pan
Manufacturer SPXS
Bus Type Starlink V2MD
Phase Status In Orbit
Owner/State SPXS/US

Most Searched